Cross City, FL

2:46 AM EST on December 09, 2019 (GMT -0500)
Cross City

Weather History for KCTY - October, 2019

Change the Weather History Date:

Monday, October 28, 2019

  Actual Average Record
Temperature  
Mean Temperature 78 °F 67 °F  
Max Temperature 87 °F 80 °F 90 °F (2010)
Min Temperature 68 °F 54 °F 35 °F (2001)
Degree Days  
Heating Degree Days 0    
Month to date heating degree days 4  
Since 1 July heating degree days 4  
Cooling Degree Days 13    
Month to date cooling degree days 297  
Year to date cooling degree days 3054  
Growing Degree Days 27 (Base 50)    
Moisture  
Dew Point 72 °F    
Average Humidity 88    
Maximum Humidity 99    
Minimum Humidity 62    
Precipitation  
Precipitation 0.00 in 0.10 in 0.29 in (2006)
Month to date precipitation 2.54 3.14  
Year to date precipitation 50.01 42.97  
Sea Level Pressure  
Sea Level Pressure 30.04 in    
Wind  
Wind Speed 2 mph (WSW)    
Max Wind Speed 7 mph    
Max Gust Speed -    
Visibility 9 miles    
Events      
T = Trace of Precipitation, MM = Missing Value Source: NWS Daily Summary

Daily Weather History Graph

Daily Weather History Graph

Search for Another Location

Airport or City:

Astronomy

Oct. 28, 2019 Rise Set
Actual Time 7:42 AM EDT 6:49 PM EDT
Civil Twilight 7:18 AM EDT 7:13 PM EDT
Nautical Twilight 6:50 AM EDT 7:41 PM EDT
Astronomical Twilight 6:22 AM EDT 8:09 PM EDT
Moon 8:04 AM EDT (10/28) 7:34 PM EDT (10/28)
Length of Visible Light 11h 55m
Length of Day
11h 06m
New Moon, 0% of the Moon is Illuminated
Oct 28
New Moon
Nov 4
First Quarter
Nov 12
Full
Nov 19
Last Quarter
Nov 26
New

Hourly Weather History & Observations

Time (EDT) Temp. Heat Index Dew Point Humidity Pressure Visibility Wind Dir Wind Speed Gust Speed Precip Events Conditions
12:15 AM 69.3 °F - 68.4 °F 97% 30.02 in 10.0 mi Calm Calm - N/A   Unknown
12:35 AM 69.8 °F - 68.9 °F 97% 30.02 in - Calm Calm - N/A   Unknown
12:55 AM 69.3 °F - 68.4 °F 97% 30.02 in 10.0 mi Calm Calm - N/A   Unknown
1:15 AM 69.1 °F - 68.4 °F 98% 30.01 in 7.0 mi Calm Calm - N/A   Unknown
1:35 AM 68.7 °F - 68.2 °F 98% 30.01 in 7.0 mi Calm Calm - N/A   Mist
1:55 AM 68.5 °F - 68.0 °F 98% 30.01 in 7.0 mi Calm Calm - N/A   Unknown
2:15 AM 68.4 °F - 67.8 °F 98% 30.02 in 7.0 mi Calm Calm - N/A   Unknown
2:35 AM 68.2 °F - 67.8 °F 99% 30.01 in 5.0 mi Calm Calm - N/A   Mist
2:55 AM 68.2 °F - 67.8 °F 99% 30.01 in 7.0 mi Calm Calm - N/A   Unknown
3:15 AM 68.9 °F - 68.5 °F 99% 30.01 in 7.0 mi Calm Calm - N/A   Mist
3:35 AM 69.1 °F - 68.5 °F 98% 30.01 in 10.0 mi Calm Calm - N/A   Unknown
4:15 AM 70.0 °F - 69.1 °F 97% 30.01 in 10.0 mi Calm Calm - N/A   Unknown
4:35 AM 70.2 °F - 69.3 °F 97% 30.01 in 10.0 mi Calm Calm - N/A   Unknown
4:55 AM 70.3 °F - 69.4 °F 97% 30.01 in 7.0 mi Calm Calm - N/A   Unknown
5:15 AM 70.5 °F - 69.8 °F 98% 30.02 in 7.0 mi Calm Calm - N/A   Unknown
5:55 AM 70.2 °F - 69.4 °F 98% 30.02 in 7.0 mi NW 3.5 mph - N/A   Mist
6:15 AM 70.3 °F - 69.6 °F 98% 30.02 in 10.0 mi North 3.5 mph - N/A   Unknown
6:35 AM 70.7 °F - 69.6 °F 96% 30.03 in 10.0 mi Calm Calm - N/A   Unknown
6:55 AM 70.9 °F - 69.8 °F 96% 30.03 in 10.0 mi Calm Calm - N/A   Unknown
7:15 AM 70.7 °F - 69.4 °F 96% 30.04 in 10.0 mi Calm Calm - N/A   Unknown
7:35 AM 70.7 °F - 69.6 °F 96% 30.04 in 7.0 mi Calm Calm - N/A   Unknown
7:55 AM 70.7 °F - 69.6 °F 96% 30.05 in 10.0 mi Calm Calm - N/A   Unknown
8:15 AM 70.7 °F - 69.8 °F 97% 30.05 in 10.0 mi Calm Calm - N/A   Unknown
8:35 AM 71.1 °F - 69.8 °F 96% 30.06 in 10.0 mi Calm Calm - N/A   Unknown
8:55 AM 71.4 °F - 69.6 °F 94% 30.07 in 10.0 mi Calm Calm - N/A   Unknown
9:15 AM 72.0 °F - 69.8 °F 93% 30.07 in 10.0 mi NNE 3.5 mph - N/A   Unknown
9:35 AM 73.4 °F - 69.8 °F 88% 30.08 in 10.0 mi NNE 4.6 mph - N/A   Unknown
9:55 AM 74.8 °F - 70.2 °F 85% 30.08 in 10.0 mi NNE 5.8 mph - N/A   Unknown
10:15 AM 77.0 °F - 69.8 °F 78% 30.08 in 10.0 mi NNE 4.6 mph - N/A   Unknown
10:35 AM 79.3 °F - 70.7 °F 75% 30.08 in 10.0 mi NE 4.6 mph - N/A   Unknown
10:55 AM 79.9 °F - 71.6 °F 76% 30.08 in 10.0 mi ENE 5.8 mph - N/A   Unknown
11:35 AM 80.6 °F 84.6 °F 71.6 °F 74% 30.08 in 10.0 mi North 3.5 mph - N/A   Unknown
11:55 AM 83.1 °F 88.9 °F 72.7 °F 71% 30.08 in 10.0 mi SSW 5.8 mph - N/A   Unknown
12:15 PM 82.2 °F 87.6 °F 72.9 °F 73% 30.08 in 10.0 mi Calm Calm - N/A   Unknown
12:35 PM 82.4 °F 87.9 °F 73.0 °F 73% 30.07 in 10.0 mi East 4.6 mph - N/A   Unknown
12:55 PM 82.4 °F 87.9 °F 73.0 °F 73% 30.07 in 10.0 mi SSE 3.5 mph - N/A   Unknown
1:15 PM 84.6 °F 91.4 °F 73.4 °F 69% 30.06 in 10.0 mi SSW 5.8 mph - N/A   Unknown
1:35 PM 83.8 °F 90.4 °F 73.4 °F 71% 30.05 in 10.0 mi South 5.8 mph - N/A   Unknown
1:55 PM 85.1 °F 92.6 °F 73.8 °F 69% 30.04 in 10.0 mi East 3.5 mph - N/A   Unknown
2:15 PM 86.0 °F 94.6 °F 74.7 °F 69% 30.03 in 10.0 mi Calm Calm - N/A   Unknown
2:35 PM 84.9 °F 92.9 °F 74.5 °F 71% 30.03 in 10.0 mi SE 5.8 mph - N/A   Unknown
2:55 PM 84.6 °F 92.1 °F 74.3 °F 71% 30.03 in 10.0 mi SSW 5.8 mph - N/A   Unknown
3:15 PM 84.2 °F 91.6 °F 74.1 °F 72% 30.02 in 10.0 mi South 4.6 mph - N/A   Unknown
3:35 PM 84.6 °F 92.4 °F 74.5 °F 72% 30.02 in 10.0 mi South 4.6 mph - N/A   Unknown
3:55 PM 84.4 °F 92.0 °F 74.7 °F 72% 30.02 in 10.0 mi South 6.9 mph - N/A   Unknown
4:15 PM 84.2 °F 90.9 °F 73.4 °F 70% 30.02 in 10.0 mi SW 5.8 mph - N/A   Unknown
4:35 PM 83.8 °F 90.8 °F 73.8 °F 72% 30.02 in 10.0 mi SSW 3.5 mph - N/A   Unknown
4:55 PM 83.7 °F 90.4 °F 73.9 °F 72% 30.02 in 10.0 mi SSW 3.5 mph - N/A   Unknown
5:15 PM 83.3 °F 90.5 °F 74.5 °F 75% 30.02 in 10.0 mi West 4.6 mph - N/A   Unknown
5:35 PM 82.9 °F 89.7 °F 74.5 °F 75% 30.02 in 10.0 mi West 4.6 mph - N/A   Unknown
5:55 PM 82.6 °F 89.1 °F 74.5 °F 76% 30.02 in 10.0 mi West 3.5 mph - N/A   Unknown
6:15 PM 82.4 °F 89.5 °F 75.2 °F 79% 30.02 in 10.0 mi WNW 3.5 mph - N/A   Unknown
6:35 PM 80.2 °F 85.7 °F 75.6 °F 86% 30.03 in 10.0 mi NW 4.6 mph - N/A   Unknown
6:55 PM 79.0 °F - 75.6 °F 89% 30.03 in 10.0 mi NW 3.5 mph - N/A   Unknown
7:15 PM 78.4 °F - 75.7 °F 91% 30.03 in 10.0 mi Calm Calm - N/A   Unknown
7:35 PM 77.9 °F - 75.6 °F 92% 30.03 in 10.0 mi NNW 3.5 mph - N/A   Unknown
7:55 PM 77.2 °F - 75.2 °F 94% 30.04 in 10.0 mi Calm Calm - N/A   Unknown
8:15 PM 77.0 °F - 75.2 °F 94% 30.05 in 10.0 mi Calm Calm - N/A   Unknown
8:35 PM 76.5 °F - 75.0 °F 95% 30.05 in 3.5 mi Calm Calm - N/A   Mist
8:55 PM 75.6 °F - 74.5 °F 96% 30.06 in 10.0 mi Calm Calm - N/A   Unknown
9:15 PM 75.9 °F - 74.8 °F 96% 30.06 in 10.0 mi Calm Calm - N/A   Unknown
9:35 PM 75.9 °F - 74.8 °F 96% 30.06 in 7.0 mi Calm Calm - N/A   Unknown
9:55 PM 75.7 °F - 74.8 °F 97% 30.06 in 10.0 mi Calm Calm - N/A   Unknown
10:15 PM 75.7 °F - 74.5 °F 96% 30.07 in 10.0 mi Calm Calm - N/A   Unknown
10:35 PM 75.4 °F - 74.5 °F 97% 30.07 in 10.0 mi Calm Calm - N/A   Unknown
10:55 PM 75.4 °F - 74.5 °F 97% 30.07 in 10.0 mi Calm Calm - N/A   Unknown
11:15 PM 74.8 °F - 73.9 °F 97% 30.07 in 10.0 mi Calm Calm - N/A   Unknown
11:35 PM 75.4 °F - 74.3 °F 96% 30.07 in 10.0 mi Calm Calm - N/A   Unknown
11:55 PM 75.0 °F - 74.1 °F 97% 30.07 in 10.0 mi Calm Calm - N/A   Unknown